Simultaneous Nadir Overpasses (SNOs) Predictions

Prediction of SNOs near equator between AQUA and NPP Satellite Orbit:

Table of predicted SNOs near equator for the next 14.0 days since TLE Epoch: 1/31/2020
Index Date (AQUA) Time (AQUA) AQUA Lat,Lon Date (NPP) Time (NPP) NPP Lat,Lon Distance(km) Time Diff (sec)
1 02/02/2020 08:41:52 4.38, 72.80 02/02/2020 08:32:22 4.31, 72.43 41.81 570
2 02/02/2020 09:29:58 0.19,-118.57 02/02/2020 09:21:44 0.32,-119.20 72.28 494
3 02/05/2020 00:15:54 -29.96, 15.17 02/05/2020 00:05:54 -30.43, 14.56 79.03 600
4 02/05/2020 00:57:55 2.84,-170.99 02/05/2020 00:48:51 2.76,-171.46 52.77 544
5 02/05/2020 01:46:01 1.74, -2.36 02/05/2020 01:38:13 1.87, -3.09 83.12 468
6 02/07/2020 16:25:42 -5.79, 136.64 02/07/2020 16:15:49 -5.75, 136.34 33.66 593
7 02/07/2020 17:13:58 1.25, -54.77 02/07/2020 17:05:20 1.16, -55.33 63.68 518
8 02/07/2020 18:02:05 3.28, 113.85 02/07/2020 17:54:42 3.47, 113.03 93.76 443
9 02/10/2020 08:41:47 -4.32,-107.16 02/10/2020 08:32:19 -4.21,-107.55 44.53 568
10 02/10/2020 09:30:03 -0.22, 61.43 02/10/2020 09:21:50 -0.39, 60.78 74.58 493
11 02/13/2020 00:15:59 29.96,-164.84 02/13/2020 00:05:59 30.30,-165.44 69.19 600
12 02/13/2020 00:57:50 -2.73, 9.06 02/13/2020 00:48:48 -2.61, 8.58 55.37 542
13 02/13/2020 01:46:05 -1.80, 177.65 02/13/2020 01:38:18 -1.98, 176.90 85.38 467




NCC Satellite Simultaneous Nadir Overpasses (SNOs) Prediction Service
